This is the latest recevied weather packets stored in our database for station/object SQ9NFI-4. If no packets are shown the sender has not sent any weather packets the latest 10 day(s).
| Time | Temp. | Humidity | Pressure | Rain* | Wind** | Luminosity | Snow |
|---|---|---|---|---|---|---|---|
| 1777710316 | 20.56° C | 36% | 1025.4 hPa | 0 mm | - | 589 W/m² | - |
| 1777710016 | 20.56° C | 35% | 1025.4 hPa | 0 mm | - | 583 W/m² | - |
| 1777709716 | 20.56° C | 36% | 1025.4 hPa | 0 mm | - | 574 W/m² | - |
| 1777709416 | 20.56° C | 35% | 1025.7 hPa | 0 mm | - | 573 W/m² | - |
| 1777709116 | 20.56° C | 36% | 1025.7 hPa | 0 mm | - | 143 W/m² | - |
| 1777708816 | 20.56° C | 37% | 1025.7 hPa | 0 mm | - | 556 W/m² | - |
| 1777708516 | 20.56° C | 37% | 1025.7 hPa | 0 mm | - | 549 W/m² | - |
| 1777708216 | 20.56° C | 37% | 1025.7 hPa | 0 mm | - | 535 W/m² | - |
| 1777707916 | 20.56° C | 37% | 1025.7 hPa | 0 mm | - | 525 W/m² | - |
| 1777707616 | 20.56° C | 37% | 1025.7 hPa | 0 mm | - | 515 W/m² | - |
| 1777707316 | 20° C | 36% | 1025.4 hPa | 0 mm | - | 118 W/m² | - |
| 1777707016 | 20° C | 36% | 1025.4 hPa | 0 mm | - | 495 W/m² | - |
| 1777706716 | 20.56° C | 37% | 1025.7 hPa | 0 mm | - | 479 W/m² | - |
| 1777706416 | 20.56° C | 37% | 1025.7 hPa | 0 mm | - | 464 W/m² | - |
| 1777706116 | 20.56° C | 40% | 1025.7 hPa | 0 mm | - | 447 W/m² | - |
| 1777705816 | 20.56° C | 39% | 1025.4 hPa | 0 mm | - | 432 W/m² | - |
| 1777705516 | 20.56° C | 40% | 1025.4 hPa | 0 mm | - | 425 W/m² | - |
| 1777705216 | 20.56° C | 39% | 1025.7 hPa | 0 mm | - | 415 W/m² | - |
| 1777704916 | 20.56° C | 43% | 1025.7 hPa | 0 mm | - | 405 W/m² | - |
| 1777704616 | 20° C | 43% | 1025.7 hPa | 0 mm | - | 390 W/m² | - |
| 1777704316 | 19.44° C | 41% | 1025.7 hPa | 0 mm | - | 377 W/m² | - |
| 1777704016 | 18.33° C | 42% | 1025.7 hPa | 0 mm | - | 364 W/m² | - |
| 1777703716 | 17.78° C | 43% | 1025.7 hPa | 0 mm | - | 350 W/m² | - |
| 1777703416 | 17.78° C | 43% | 1025.7 hPa | 0 mm | - | 338 W/m² | - |
| 1777703116 | 17.22° C | 46% | 1025.7 hPa | 0 mm | - | 324 W/m² | - |
* Rain latest hour (hover to see other rain measurements)
** Current wind speed in m/s (hover to see current wind gust speed)